Weather History for Mt. Pocono, PA

Change the Weather History Date:

Friday, February 21, 2014

  Actual Average Record
Temperature  
Mean Temperature 39 °F 27 °F  
Max Temperature 46 °F 35 °F 60 °F (1930)
Min Temperature 31 °F 19 °F -8 °F (1993)
Degree Days  
Heating Degree Days 26 38  
Month to date heating degree days 931 833  
Since 1 July heating degree days 5109 4864  
Cooling Degree Days 0 0  
Month to date cooling degree days 0 0  
Year to date cooling degree days 0 0  
Moisture  
Dew Point 33 °F    
Average Humidity 80    
Maximum Humidity 100    
Minimum Humidity 59    
Precipitation  
Precipitation 0.26 in 0.09 in 1.55 in (1954)
Month to date precipitation 2.95 1.74  
Year to date precipitation 6.30 4.59  
Sea Level Pressure  
Sea Level Pressure 29.80 in    
Wind  
Wind Speed 11 mph (South)    
Max Wind Speed 30 mph    
Max Gust Speed 40 mph    
Visibility 5 miles    
Events Fog , Rain    
T = Trace of Precipitation, MM = Missing Value Source: NWS Daily Summary

Daily Weather History Graph

Daily Weather History Graph

Search for Another Location

Airport:

Trip Planner

Search our weather history database for the weather conditions in past years. The results will help you decide how hot, cold, wet, or windy it might be!

Date:

Astronomy

Feb. 21, 2014 Rise Set
Actual Time 6:47 AM EST 5:43 PM EST
Civil Twilight 6:19 AM EST 6:10 PM EST
Nautical Twilight 5:47 AM EST 6:43 PM EST
Astronomical Twilight 5:15 AM EST 7:14 PM EST
Moon No Moon Rise 10:06 AM EST (2/21)
Length of Visible Light 11h 51m
Length of Day
10h 55m
Waning Gibbous, 61% of the Moon is Illuminated
Feb 21
Waning Gibbous
Feb 22
Last Quarter
Mar 1
New
Mar 8
First Quarter
Mar 16
Full

Hourly Weather History & Observations

Time (EST) Temp. Windchill Dew Point Humidity Pressure Visibility Wind Dir Wind Speed Gust Speed Precip Events Conditions
12:53 AM 35.1 °F 30.1 °F 26.1 °F 70% 29.96 in 10.0 mi ESE 5.8 mph - N/A   Overcast
1:16 AM 35.1 °F 30.1 °F 26.1 °F 70% 29.90 in 10.0 mi SE 5.8 mph - N/A   Overcast
1:53 AM 34.0 °F 28.0 °F 28.0 °F 79% 29.93 in 10.0 mi ESE 6.9 mph - N/A   Overcast
2:44 AM 34.0 °F 26.6 °F 30.0 °F 85% 29.87 in 5.0 mi SE 9.2 mph - N/A   Overcast
2:53 AM 34.0 °F 26.6 °F 30.9 °F 89% 29.91 in 5.0 mi ESE 9.2 mph - N/A   Overcast
3:28 AM 34.0 °F 28.8 °F 32.0 °F 92% 29.85 in 1.8 mi ESE 5.8 mph - N/A   Overcast
3:39 AM 35.1 °F 27.9 °F 33.1 °F 92% 29.85 in 0.5 mi SSE 9.2 mph - N/A Fog Fog
3:50 AM 33.8 °F 27.0 °F 33.8 °F 100% 29.85 in 0.2 mi SE 8.1 mph - N/A Fog Fog
3:53 AM 34.0 °F 27.2 °F 33.1 °F 96% 29.90 in 0.2 mi SE 8.1 mph - N/A Fog Fog
4:53 AM 35.1 °F 27.9 °F 35.1 °F 100% 29.91 in 0.2 mi SE 9.2 mph - N/A Fog Fog
5:53 AM 36.0 °F 28.5 °F 35.1 °F 97% 29.88 in 0.2 mi ESE 10.4 mph - N/A Fog Fog
6:53 AM 35.1 °F 29.3 °F 35.1 °F 100% 29.87 in 0.2 mi ESE 6.9 mph - N/A Fog Fog
7:53 AM 35.1 °F 28.6 °F 34.0 °F 96% 29.86 in 0.2 mi ESE 8.1 mph - N/A Fog Fog
8:53 AM 36.0 °F 28.5 °F 35.1 °F 97% 29.83 in 0.2 mi ESE 10.4 mph - N/A Fog Fog
9:53 AM 36.0 °F 29.6 °F 35.1 °F 97% 29.81 in 0.2 mi ESE 8.1 mph - N/A Fog Fog
10:53 AM 37.0 °F 29.8 °F 36.0 °F 96% 29.78 in 0.2 mi SE 10.4 mph - 0.02 in Fog , Rain Light Rain
11:53 AM 39.0 °F 32.3 °F 37.9 °F 96% 29.74 in 0.2 mi ESE 10.4 mph - 0.01 in Fog , Rain Light Rain
12:53 PM 42.1 °F 36.6 °F 41.0 °F 96% 29.68 in 0.2 mi SSE 9.2 mph - 0.01 in Fog , Rain Light Rain
1:53 PM 44.1 °F 35.4 °F 41.0 °F 89% 29.71 in 0.5 mi West 21.9 mph 40.3 mph 0.15 in Fog , Rain Rain
1:59 PM 43.0 °F 34.8 °F 41.0 °F 93% 29.67 in 2.0 mi West 18.4 mph 35.7 mph 0.00 in Rain Light Rain
2:01 PM 43.0 °F 34.5 °F 41.0 °F 93% 29.67 in 3.0 mi West 19.6 mph 32.2 mph 0.00 in Rain Light Rain
2:12 PM 41.0 °F 31.1 °F 39.0 °F 93% 29.68 in 2.0 mi West 23.0 mph 35.7 mph 0.02 in Rain Rain
2:14 PM 41.0 °F 30.9 °F 39.0 °F 93% 29.68 in 1.8 mi WNW 24.2 mph 35.7 mph 0.03 in Rain Rain
2:24 PM 39.9 °F 31.1 °F 37.9 °F 93% 29.69 in 3.0 mi WNW 17.3 mph 28.8 mph 0.04 in Rain Light Rain
2:53 PM 37.9 °F 28.2 °F 36.0 °F 93% 29.73 in 10.0 mi WNW 18.4 mph 28.8 mph 0.04 in   Overcast
3:05 PM 37.9 °F 28.9 °F 35.1 °F 89% 29.68 in 10.0 mi WNW 16.1 mph 26.5 mph N/A   Overcast
3:53 PM 37.0 °F 28.9 °F 32.0 °F 82% 29.74 in 6.0 mi WNW 12.7 mph - 0.02 in Rain Light Rain
4:53 PM 37.0 °F 28.1 °F 30.9 °F 79% 29.73 in 10.0 mi WNW 15.0 mph 21.9 mph 0.01 in   Overcast
5:53 PM 36.0 °F 26.7 °F 27.0 °F 70% 29.76 in 10.0 mi WNW 15.0 mph 23.0 mph N/A   Partly Cloudy
6:53 PM 35.1 °F 27.9 °F 27.0 °F 72% 29.79 in 10.0 mi WNW 9.2 mph - N/A   Clear
7:53 PM 32.0 °F - 27.0 °F 82% 29.83 in 10.0 mi Calm Calm - N/A   Clear
8:53 PM 33.1 °F 25.5 °F 28.0 °F 82% 29.83 in 10.0 mi West 9.2 mph - N/A   Clear
9:53 PM 34.0 °F 25.5 °F 27.0 °F 75% 29.84 in 10.0 mi West 11.5 mph - N/A   Clear
10:53 PM 37.0 °F 28.9 °F 24.1 °F 59% 29.85 in 10.0 mi WSW 12.7 mph - N/A   Clear
11:53 PM 37.9 °F 27.1 °F 21.9 °F 53% 29.87 in 10.0 mi West 23.0 mph 34.5 mph N/A   Clear